BOX704 VHHH-KCVG

Flight info

Callsign BOX704
Flight time N/A
Altitude 29000
Route DALOL V631 ENVAR M750 LEKOS/N0500F310 M750 IMPAL Y755 CARDS DCT HIOTI DCT CBE Y121 SWING Y88 DAIGO Y889 OATIS R580 OPULO/N0481F330 R580 OMOTO DCT POWAL R330 SYA DCT DRAPP DCT 56N170W/N0481F350 57N160W DCT CJAYY DCT 57N140W DCT AKTEX DCT 55N120W 5230N11000W/N0469F370 49N100W DCT GFK DCT GEP J36 ODI DCT ZABNU CEGRM8
Aircraft B77L/H-SDE1E2E3FGHIJ2J3J4J5M1RWXY/LB1D1

Departure

Time 2026-04-30 21:15
Airport Hong Kong International Airport (VHHH)

Arrival

Time N/A
Airport Cincinnati Northern Kentucky International Airport (KCVG)
Time Latitude Longitude Altitude Speed Heading
2026-04-30 20:09 22.29651 113.91949 41 ft 0 kts 70°
2026-04-30 21:01 22.29647 113.91939 40 ft 2 kts 70°
2026-04-30 21:01 22.29642 113.91925 40 ft 2 kts 70°
2026-04-30 21:01 22.29632 113.91902 40 ft 2 kts 47°
2026-04-30 21:02 22.29621 113.91891 40 ft 1 kts 28°
2026-04-30 21:02 22.29616 113.91889 40 ft 2 kts 23°
2026-04-30 21:02 22.29602 113.91885 40 ft 2 kts
2026-04-30 21:02 22.29586 113.91885 40 ft 2 kts 346°
2026-04-30 21:03 22.29580 113.91888 40 ft 1 kts 340°
2026-04-30 21:03 22.29578 113.91888 40 ft 0 kts 340°
2026-04-30 21:05 22.29579 113.91888 40 ft 1 kts 340°
2026-04-30 21:06 22.29599 113.91880 40 ft 4 kts 340°
2026-04-30 21:06 22.29643 113.91863 40 ft 8 kts 342°
2026-04-30 21:06 22.29672 113.91853 40 ft 8 kts 342°
2026-04-30 21:07 22.29696 113.91845 40 ft 7 kts 341°
2026-04-30 21:07 22.29739 113.91830 40 ft 5 kts 342°
2026-04-30 21:07 22.29776 113.91817 40 ft 5 kts 342°
2026-04-30 21:08 22.29819 113.91798 40 ft 8 kts 333°
2026-04-30 21:08 22.29878 113.91761 40 ft 11 kts 333°
2026-04-30 21:08 22.29954 113.91728 40 ft 11 kts 340°
2026-04-30 21:08 22.30019 113.91696 40 ft 9 kts 316°
2026-04-30 21:09 22.30027 113.91627 40 ft 11 kts 255°
2026-04-30 21:09 22.30000 113.91538 40 ft 14 kts 251°
2026-04-30 21:09 22.29964 113.91426 40 ft 17 kts 251°
2026-04-30 21:09 22.29921 113.91296 40 ft 19 kts 251°
2026-04-30 21:10 22.29872 113.91144 40 ft 21 kts 251°
2026-04-30 21:10 22.29827 113.91001 40 ft 18 kts 251°
2026-04-30 21:10 22.29787 113.90879 40 ft 15 kts 251°
2026-04-30 21:10 22.29752 113.90769 40 ft 14 kts 251°
2026-04-30 21:11 22.29718 113.90666 40 ft 14 kts 250°
2026-04-30 21:11 22.29683 113.90557 40 ft 16 kts 251°
2026-04-30 21:11 22.29645 113.90437 40 ft 17 kts 251°
2026-04-30 21:11 22.29603 113.90308 40 ft 18 kts 251°
2026-04-30 21:12 22.29559 113.90170 40 ft 19 kts 251°
2026-04-30 21:12 22.29516 113.90036 40 ft 17 kts 251°
2026-04-30 21:12 22.29488 113.89923 40 ft 14 kts 272°
2026-04-30 21:12 22.29537 113.89846 40 ft 11 kts 334°
2026-04-30 21:13 22.29607 113.89844 40 ft 9 kts 25°
2026-04-30 21:13 22.29646 113.89889 40 ft 7 kts 63°
2026-04-30 21:13 22.29662 113.89933 40 ft 5 kts 69°
2026-04-30 21:13 22.29694 113.90031 40 ft 33 kts 71°
2026-04-30 21:14 22.29832 113.90461 40 ft 88 kts 71°
2026-04-30 21:14 22.30094 113.91273 41 ft 139 kts 71°
2026-04-30 21:14 22.30467 113.92429 41 ft 185 kts 71°
2026-04-30 21:14 22.30908 113.93823 324 ft 199 kts 72°
2026-04-30 21:15 22.31350 113.95262 908 ft 203 kts 71°
2026-04-30 21:15 22.31795 113.96644 1692 ft 192 kts 70°
2026-04-30 21:15 22.32243 113.98017 2078 ft 196 kts 70°
2026-04-30 21:15 22.32712 113.99421 2515 ft 197 kts 71°
2026-04-30 21:16 22.33169 114.00819 2916 ft 200 kts 71°
2026-04-30 21:16 22.33630 114.02254 3239 ft 208 kts 72°
2026-04-30 21:16 22.33874 114.03842 3313 ft 226 kts 95°
2026-04-30 21:16 22.33378 114.05518 3525 ft 239 kts 124°
2026-04-30 21:17 22.32302 114.06827 4175 ft 232 kts 134°
2026-04-30 21:17 22.31053 114.07924 4585 ft 236 kts 154°
2026-04-30 21:17 22.29487 114.08473 4986 ft 238 kts 171°
2026-04-30 21:17 22.27817 114.08655 5430 ft 240 kts 179°
2026-04-30 21:18 22.26157 114.08688 5885 ft 241 kts 181°
2026-04-30 21:18 22.24474 114.08689 6346 ft 242 kts 182°
2026-04-30 21:18 22.22764 114.08673 6665 ft 251 kts 183°
2026-04-30 21:18 22.20947 114.08651 6798 ft 268 kts 183°
2026-04-30 21:19 22.19032 114.08635 7058 ft 279 kts 181°
2026-04-30 21:19 22.17110 114.09043 7463 ft 289 kts 156°
2026-04-30 21:19 22.15490 114.10313 7873 ft 297 kts 130°
2026-04-30 21:19 22.14356 114.12202 8379 ft 300 kts 119°
2026-04-30 21:20 22.13398 114.14217 8831 ft 303 kts 118°
2026-04-30 21:20 22.12445 114.16258 9263 ft 308 kts 118°
2026-04-30 21:20 22.11468 114.18328 9712 ft 310 kts 118°
2026-04-30 21:20 22.10497 114.20375 10175 ft 313 kts 118°
2026-04-30 21:21 22.09486 114.22501 10552 ft 319 kts 118°
2026-04-30 21:21 22.08403 114.24586 10918 ft 325 kts 126°
2026-04-30 21:21 22.05172 114.28293 11124 ft 354 kts 146°
2026-04-30 21:22 22.03146 114.29877 11276 ft 369 kts 146°
2026-04-30 21:22 21.96542 114.35033 11986 ft 407 kts 146°
2026-04-30 21:23 21.94207 114.36867 12543 ft 410 kts 146°
2026-04-30 21:23 21.91921 114.38665 13140 ft 411 kts 146°
2026-04-30 21:23 21.87341 114.42506 14183 ft 422 kts 136°
2026-04-30 21:24 21.85456 114.44912 14740 ft 427 kts 126°
2026-04-30 21:24 21.83963 114.47702 15323 ft 431 kts 115°
2026-04-30 21:24 21.82935 114.50750 15879 ft 435 kts 106°
2026-04-30 21:24 21.82163 114.53878 16380 ft 440 kts 105°
2026-04-30 21:25 21.80588 114.60272 17421 ft 446 kts 106°
2026-04-30 21:25 21.79775 114.63503 17955 ft 449 kts 106°
2026-04-30 21:25 21.78953 114.66742 18442 ft 453 kts 106°
2026-04-30 21:26 21.77267 114.73319 19351 ft 460 kts 106°
2026-04-30 21:26 21.76408 114.76649 19792 ft 464 kts 106°
2026-04-30 21:27 21.74741 114.83354 20669 ft 471 kts 101°
2026-04-30 21:27 21.74371 114.86887 21055 ft 475 kts 92°
2026-04-30 21:27 21.74337 114.90413 21481 ft 478 kts 90°
2026-04-30 21:28 21.74347 114.97613 22334 ft 483 kts 90°
2026-04-30 21:28 21.74350 115.01196 22740 ft 486 kts 90°
2026-04-30 21:28 21.74351 115.08560 23440 ft 495 kts 90°
2026-04-30 21:29 21.74349 115.12247 23836 ft 497 kts 90°
2026-04-30 21:29 21.74337 115.23463 24856 ft 509 kts 90°
2026-04-30 21:30 21.74322 115.31122 25656 ft 515 kts 90°
2026-04-30 21:31 21.74294 115.42713 26749 ft 525 kts 91°
2026-04-30 21:31 21.74269 115.50610 27470 ft 532 kts 90°
2026-04-30 21:32 21.74241 115.58564 28195 ft 538 kts 91°
2026-04-30 21:32 21.74226 115.62613 28651 ft 539 kts 90°
2026-04-30 21:32 21.74211 115.66622 28969 ft 542 kts 91°
2026-04-30 21:32 21.74196 115.70672 28981 ft 540 kts 91°
2026-04-30 21:33 21.74142 115.82708 28990 ft 538 kts 91°
2026-04-30 21:34 21.74101 115.90718 28986 ft 537 kts 91°
2026-04-30 21:34 21.74033 116.02751 28988 ft 539 kts 91°
2026-04-30 21:35 21.73983 116.10784 28990 ft 538 kts 91°
2026-04-30 21:35 21.73928 116.18790 28989 ft 538 kts 91°
2026-04-30 21:36 21.73870 116.26839 28991 ft 538 kts 91°
2026-04-30 21:37 21.73741 116.42963 28988 ft 536 kts 90°
2026-04-30 21:37 21.73671 116.51037 28992 ft 539 kts 91°
2026-04-30 21:38 21.73597 116.59093 28993 ft 538 kts 90°
2026-04-30 21:38 21.73520 116.67123 28986 ft 538 kts 91°
2026-04-30 21:39 21.73515 116.75101 28980 ft 537 kts 86°
2026-04-30 21:39 21.75017 116.82919 28985 ft 536 kts 69°
2026-04-30 21:40 21.77685 116.90380 28985 ft 535 kts 67°
2026-04-30 21:40 21.80400 116.97849 28987 ft 536 kts 67°
2026-04-30 21:41 21.83096 117.05293 28990 ft 534 kts 67°
2026-04-30 21:41 21.85781 117.12724 28990 ft 536 kts 67°
2026-04-30 21:42 21.88466 117.20174 28991 ft 534 kts 67°
2026-04-30 21:42 21.91161 117.27666 28993 ft 535 kts 67°
2026-04-30 21:43 21.93829 117.35097 28995 ft 535 kts 67°
2026-04-30 21:43 21.96495 117.42534 28994 ft 535 kts 68°
2026-04-30 21:44 21.99275 117.49961 28995 ft 533 kts 61°
2026-04-30 21:44 22.03023 117.56825 28995 ft 533 kts 56°
2026-04-30 21:45 22.06870 117.63582 28999 ft 532 kts 56°
2026-04-30 21:45 22.10741 117.70396 28991 ft 532 kts 57°
2026-04-30 21:46 22.14598 117.77200 28998 ft 530 kts 57°
2026-04-30 21:46 22.18407 117.83927 28996 ft 530 kts 57°
2026-04-30 21:47 22.22239 117.90708 28995 ft 530 kts 57°
2026-04-30 21:47 22.26093 117.97536 28998 ft 531 kts 57°
2026-04-30 21:48 22.29937 118.04263 29001 ft 529 kts 56°
2026-04-30 21:48 22.33883 118.11006 29004 ft 531 kts 56°
2026-04-30 21:49 22.37795 118.17709 28995 ft 528 kts 56°
2026-04-30 21:49 22.41704 118.24455 29005 ft 530 kts 57°
2026-04-30 21:50 22.45542 118.31233 29010 ft 528 kts 57°
2026-04-30 21:50 22.49368 118.38000 28998 ft 528 kts 57°
2026-04-30 21:51 22.53193 118.44770 29010 ft 530 kts 57°
2026-04-30 21:51 22.57015 118.51540 29008 ft 528 kts 57°
2026-04-30 21:52 22.60878 118.58328 29004 ft 528 kts 56°
2026-04-30 21:52 22.64717 118.65065 29013 ft 527 kts 57°
2026-04-30 21:53 22.68550 118.71803 29005 ft 527 kts 57°
2026-04-30 21:53 22.72384 118.78552 29006 ft 527 kts 57°
2026-04-30 21:54 22.76237 118.85345 29007 ft 527 kts 57°
2026-04-30 21:54 22.80065 118.92104 29008 ft 528 kts 57°
2026-04-30 21:55 22.83888 118.98860 29009 ft 527 kts 57°
2026-04-30 21:55 22.87691 119.05592 29009 ft 526 kts 57°
2026-04-30 21:56 22.91496 119.12337 29010 ft 526 kts 57°
2026-04-30 21:56 22.95324 119.19130 29012 ft 526 kts 57°
2026-04-30 21:57 22.99116 119.25869 29011 ft 525 kts 57°
2026-04-30 21:57 23.02917 119.32631 29008 ft 525 kts 57°
2026-04-30 21:58 23.06709 119.39387 29012 ft 525 kts 57°
2026-04-30 21:58 23.10496 119.46145 29011 ft 526 kts 57°
2026-04-30 21:59 23.14289 119.52921 29011 ft 525 kts 57°
2026-04-30 22:00 23.19991 119.63121 29011 ft 525 kts 57°
2026-04-30 22:00 23.25662 119.73279 29005 ft 525 kts 57°
2026-04-30 22:01 23.29452 119.80080 29003 ft 525 kts 57°
2026-04-30 22:01 23.33210 119.86832 29003 ft 525 kts 57°
2026-04-30 22:02 23.37376 119.93372 29008 ft 521 kts 45°
2026-04-30 22:02 23.42572 119.98889 29002 ft 519 kts 40°
2026-04-30 22:03 23.47846 120.04319 29006 ft 520 kts 40°
2026-04-30 22:03 23.53095 120.09728 29005 ft 519 kts 40°
2026-04-30 22:04 23.58341 120.15141 29023 ft 518 kts 41°
2026-04-30 22:05 23.66187 120.23248 29017 ft 517 kts 41°
2026-04-30 22:05 23.71398 120.28642 29025 ft 518 kts 40°
2026-04-30 22:06 23.76636 120.34068 29031 ft 518 kts 40°
2026-04-30 22:06 23.84456 120.42182 29025 ft 517 kts 40°
2026-04-30 22:07 23.89655 120.47585 29033 ft 518 kts 40°
2026-04-30 22:07 23.94874 120.53056 29025 ft 518 kts 41°
2026-04-30 22:08 24.00058 120.58527 29036 ft 519 kts 41°
2026-04-30 22:08 24.05227 120.63989 29047 ft 518 kts 41°
2026-04-30 22:09 24.10395 120.69453 29022 ft 518 kts 41°
2026-04-30 22:09 24.15597 120.74959 29022 ft 518 kts 41°
2026-04-30 22:10 24.20775 120.80445 29015 ft 519 kts 41°
2026-04-30 22:10 24.25948 120.85934 29022 ft 519 kts 41°
2026-04-30 22:11 24.33716 120.94188 29092 ft 519 kts 41°
2026-04-30 22:12 24.38873 120.99674 29197 ft 520 kts 41°
2026-04-30 22:12 24.43737 121.05528 29208 ft 521 kts 49°
2026-04-30 22:13 24.48278 121.11785 29229 ft 522 kts 49°
2026-04-30 22:13 24.52790 121.18015 29245 ft 523 kts 49°
2026-04-30 22:14 24.57305 121.24255 29224 ft 521 kts 49°
2026-04-30 22:14 24.61797 121.30467 29185 ft 523 kts 49°
2026-04-30 22:15 24.66323 121.36735 29130 ft 523 kts 49°
2026-04-30 22:15 24.70840 121.42998 29096 ft 523 kts 49°
2026-04-30 22:16 24.75351 121.49258 29094 ft 523 kts 49°
2026-04-30 22:17 24.84339 121.61758 29076 ft 521 kts 49°
2026-04-30 22:17 24.91118 121.71152 29071 ft 521 kts 46°
2026-04-30 22:18 24.98276 121.80209 29074 ft 522 kts 46°
2026-04-30 22:19 25.05411 121.89265 29094 ft 524 kts 46°
2026-04-30 22:20 25.12540 121.98357 29082 ft 522 kts 46°
2026-04-30 22:20 25.19607 122.07487 29082 ft 521 kts 46°
2026-04-30 22:21 25.24337 122.13628 29070 ft 522 kts 46°
2026-04-30 22:21 25.29066 122.19774 29082 ft 522 kts 46°
2026-04-30 22:22 25.33769 122.25892 29094 ft 525 kts 46°
2026-04-30 22:22 25.38478 122.32029 29099 ft 525 kts 46°
2026-04-30 22:23 25.43172 122.38152 29090 ft 524 kts 46°
2026-04-30 22:23 25.47897 122.44325 29085 ft 525 kts 46°
2026-04-30 22:24 25.52640 122.50517 29181 ft 531 kts 46°
2026-04-30 22:24 25.55041 122.53634 29714 ft 530 kts 46°
2026-04-30 22:24 25.57387 122.56683 30504 ft 524 kts 46°
2026-04-30 22:25 25.59761 122.59769 31023 ft 524 kts 45°
2026-04-30 22:25 25.62112 122.62826 31100 ft 527 kts 45°
2026-04-30 22:25 25.66842 122.68987 31080 ft 522 kts 46°
2026-04-30 22:26 25.73909 122.78207 31086 ft 523 kts 46°
2026-04-30 22:27 25.78618 122.84360 31097 ft 523 kts 46°
2026-04-30 22:27 25.85671 122.93594 31097 ft 524 kts 46°
2026-04-30 22:28 25.92713 123.02835 31107 ft 522 kts 46°
2026-04-30 22:29 26.02102 123.15189 31099 ft 525 kts 46°
2026-04-30 22:31 26.18566 123.36936 31108 ft 526 kts 46°
2026-04-30 22:32 26.30351 123.52569 31104 ft 525 kts 46°
2026-04-30 22:33 26.42066 123.68162 31096 ft 524 kts 46°
2026-04-30 22:35 26.53771 123.83794 31095 ft 525 kts 46°
2026-04-30 22:36 26.65424 123.99412 31096 ft 525 kts 46°
2026-04-30 22:37 26.74822 124.11992 31096 ft 526 kts 46°
2026-04-30 22:38 26.84159 124.24516 31092 ft 526 kts 45°
2026-04-30 22:39 26.91161 124.33931 31100 ft 527 kts 45°
2026-04-30 22:40 27.05222 124.52896 31107 ft 526 kts 45°
2026-04-30 22:41 27.16934 124.68745 31086 ft 529 kts 45°
2026-04-30 22:43 27.30962 124.87807 31099 ft 531 kts 45°
2026-04-30 22:44 27.40356 125.00619 31098 ft 529 kts 45°
2026-04-30 22:45 27.54475 125.19673 31100 ft 530 kts 44°
2026-04-30 22:47 27.68626 125.38859 31105 ft 530 kts 44°
2026-04-30 22:48 27.78071 125.51711 31105 ft 531 kts 44°
2026-04-30 22:49 27.92253 125.71085 31088 ft 536 kts 44°
2026-04-30 22:51 28.06470 125.90594 31090 ft 539 kts 44°
2026-04-30 22:52 28.13590 126.00402 31097 ft 536 kts 43°
2026-04-30 22:53 28.23040 126.13447 31087 ft 541 kts 43°
2026-04-30 22:53 28.30169 126.23322 31091 ft 536 kts 43°
2026-04-30 22:55 28.42066 126.39845 31085 ft 538 kts 42°
2026-04-30 22:56 28.51557 126.53069 31090 ft 542 kts 43°
2026-04-30 22:57 28.63460 126.69718 31056 ft 545 kts 43°
2026-04-30 22:58 28.73035 126.83159 31055 ft 549 kts 43°
2026-04-30 22:59 28.87417 127.03428 31056 ft 555 kts 43°
2026-05-01 07:23 49.28041 177.89975 32532 ft 481 kts 59°
2026-05-01 07:24 49.32863 178.03522 32472 ft 482 kts 59°
2026-05-01 07:24 49.36044 178.12500 32508 ft 482 kts 60°
2026-05-01 07:25 49.39232 178.21527 32486 ft 479 kts 60°
2026-05-01 07:25 49.42398 178.30522 32521 ft 481 kts 60°
2026-05-01 07:26 49.45556 178.39529 32471 ft 482 kts 60°
2026-05-01 07:26 49.48725 178.48598 32518 ft 482 kts 60°
2026-05-01 07:27 49.51867 178.57622 32473 ft 483 kts 60°
2026-05-01 07:27 49.55004 178.66663 32501 ft 478 kts 61°
2026-05-01 07:28 49.58140 178.75732 32477 ft 481 kts 61°
2026-05-01 07:28 49.61254 178.84772 32486 ft 483 kts 61°
2026-05-01 07:29 49.64386 178.93893 32475 ft 480 kts 61°
2026-05-01 07:29 49.67495 179.02982 32465 ft 481 kts 61°
2026-05-01 07:30 49.70602 179.12097 32494 ft 482 kts 61°
2026-05-01 07:30 49.73698 179.21210 32465 ft 482 kts 61°
2026-05-01 07:31 49.76821 179.30438 32509 ft 484 kts 61°
2026-05-01 07:32 49.84508 179.53297 32451 ft 484 kts 62°
2026-05-01 07:33 49.89171 179.67262 32476 ft 484 kts 62°
2026-05-01 07:33 49.93762 179.81088 32468 ft 484 kts 63°
2026-05-01 07:34 49.98360 179.95015 32436 ft 483 kts 62°
2026-05-01 07:35 50.01445 -179.95833 32425 ft 481 kts 60°
2026-05-01 07:35 50.04748 -179.86833 32452 ft 481 kts 60°
2026-05-01 07:36 50.08060 -179.77756 32473 ft 483 kts 60°
2026-05-01 07:36 50.11337 -179.68715 32478 ft 484 kts 60°
2026-05-01 07:37 50.16242 -179.55098 32450 ft 483 kts 60°
2026-05-01 07:37 50.19519 -179.45952 32446 ft 484 kts 61°
2026-05-01 07:38 50.22793 -179.36777 32419 ft 483 kts 61°
2026-05-01 07:39 50.27658 -179.23082 32471 ft 480 kts 62°
2026-05-01 07:39 50.32515 -179.09335 32456 ft 484 kts 62°
2026-05-01 07:40 50.35744 -179.00154 32436 ft 482 kts 62°
2026-05-01 07:40 50.38942 -178.91028 32434 ft 481 kts 62°
2026-05-01 07:41 50.42146 -178.81853 32406 ft 482 kts 62°
2026-05-01 07:42 50.46963 -178.67996 32438 ft 481 kts 62°
2026-05-01 07:42 50.50157 -178.58765 32414 ft 481 kts 62°
2026-05-01 07:43 50.53345 -178.49516 32425 ft 484 kts 63°
2026-05-01 07:43 50.58129 -178.35577 32427 ft 483 kts 63°
2026-05-01 07:44 50.64471 -178.16977 32463 ft 483 kts 63°
2026-05-01 07:45 50.67610 -178.07721 32357 ft 481 kts 63°
2026-05-01 07:45 50.70775 -177.98354 32399 ft 484 kts 63°
2026-05-01 07:46 50.73948 -177.88927 32433 ft 485 kts 63°
2026-05-01 07:47 50.78659 -177.74867 32428 ft 485 kts 63°
2026-05-01 07:47 50.81786 -177.65488 32445 ft 485 kts 63°
2026-05-01 07:48 50.86488 -177.51325 32421 ft 482 kts 63°
2026-05-01 07:48 50.89579 -177.41966 32448 ft 486 kts 63°
2026-05-01 07:49 50.94240 -177.27789 32424 ft 486 kts 64°
2026-05-01 07:50 50.97343 -177.18306 32408 ft 485 kts 64°
2026-05-01 07:50 51.01953 -177.04152 32390 ft 482 kts 64°
2026-05-01 07:51 51.05025 -176.94673 32404 ft 483 kts 64°
2026-05-01 07:52 51.09605 -176.80478 32403 ft 485 kts 64°
2026-05-01 07:52 51.12679 -176.70903 32406 ft 485 kts 64°
2026-05-01 07:53 51.17240 -176.56627 32421 ft 486 kts 64°
2026-05-01 07:53 51.20271 -176.47095 32401 ft 485 kts 64°
2026-05-01 07:55 51.27850 -176.23096 32377 ft 487 kts 65°
2026-05-01 07:56 51.35361 -175.99074 32395 ft 485 kts 65°
2026-05-01 07:57 51.39834 -175.84660 32386 ft 484 kts 65°
2026-05-01 07:58 51.45802 -175.65294 32397 ft 485 kts 65°
2026-05-01 07:59 51.51726 -175.45911 32393 ft 489 kts 65°
2026-05-01 08:00 51.60543 -175.16777 32359 ft 485 kts 66°
2026-05-01 08:01 51.66389 -174.97264 32356 ft 486 kts 66°
2026-05-01 08:02 51.70773 -174.82527 32359 ft 488 kts 66°
2026-05-01 08:03 51.75129 -174.67793 32379 ft 489 kts 66°
2026-05-01 08:03 51.79465 -174.53038 32378 ft 484 kts 66°
2026-05-01 08:04 51.85208 -174.33350 32328 ft 484 kts 66°
2026-05-01 08:05 51.89463 -174.18658 32331 ft 482 kts 66°
2026-05-01 08:06 51.93750 -174.03758 32322 ft 490 kts 66°
2026-05-01 08:07 51.99385 -173.84038 32287 ft 488 kts 66°
2026-05-01 08:08 52.03640 -173.69035 32349 ft 485 kts 66°
2026-05-01 08:09 52.09249 -173.49109 32319 ft 488 kts 66°
2026-05-01 08:09 52.12040 -173.39130 32280 ft 485 kts 66°
2026-05-01 08:10 52.17595 -173.19144 32272 ft 486 kts 67°
2026-05-01 08:11 52.23133 -172.99043 32287 ft 491 kts 67°
2026-05-01 08:12 52.27262 -172.83943 32251 ft 486 kts 68°
2026-05-01 08:13 52.31378 -172.68794 32286 ft 488 kts 68°
2026-05-01 08:13 52.35475 -172.53612 32254 ft 487 kts 68°
2026-05-01 08:14 52.38190 -172.43497 32267 ft 490 kts 68°
2026-05-01 08:14 52.40899 -172.33363 32256 ft 484 kts 68°
2026-05-01 08:15 52.44961 -172.18072 32267 ft 489 kts 68°
2026-05-01 08:16 52.47631 -172.07970 32286 ft 487 kts 68°
2026-05-01 08:16 52.50303 -171.97813 32259 ft 489 kts 68°
2026-05-01 08:17 52.52979 -171.87595 32278 ft 486 kts 68°
2026-05-01 08:17 52.55624 -171.77451 32204 ft 490 kts 68°
2026-05-01 08:18 52.58313 -171.67091 32251 ft 493 kts 68°
2026-05-01 08:19 52.63584 -171.46645 32208 ft 487 kts 69°
2026-05-01 08:19 52.66221 -171.36348 32210 ft 486 kts 68°
2026-05-01 08:20 52.68839 -171.26071 32199 ft 490 kts 69°
2026-05-01 08:20 52.71445 -171.15799 32217 ft 489 kts 69°
2026-05-01 08:21 52.74066 -171.05417 32242 ft 489 kts 69°
2026-05-01 08:21 52.76658 -170.95106 32231 ft 490 kts 69°
2026-05-01 08:22 52.79248 -170.84753 32237 ft 488 kts 69°
2026-05-01 08:22 52.81828 -170.74393 32209 ft 494 kts 69°
2026-05-01 08:23 52.84403 -170.64004 32210 ft 488 kts 69°
2026-05-01 08:23 52.86972 -170.53587 32191 ft 490 kts 69°
2026-05-01 08:24 52.89536 -170.43143 32194 ft 492 kts 69°
2026-05-01 08:24 52.92088 -170.32704 32193 ft 489 kts 70°
2026-05-01 08:25 52.94645 -170.22185 32191 ft 491 kts 70°
2026-05-01 08:25 52.97174 -170.11734 32192 ft 490 kts 70°
2026-05-01 08:26 52.99584 -170.01186 32215 ft 494 kts 76°
2026-05-01 08:26 53.00468 -169.95657 32474 ft 497 kts 77°
2026-05-01 08:26 53.01310 -169.90115 32949 ft 495 kts 78°
2026-05-01 08:26 53.02139 -169.84569 33351 ft 496 kts 78°
2026-05-01 08:27 53.02689 -169.80846 33585 ft 498 kts 78°
2026-05-01 08:28 53.06109 -169.57130 34182 ft 500 kts 79°
2026-05-01 08:28 53.07688 -169.45952 34181 ft 498 kts 79°
2026-05-01 08:29 53.09262 -169.34691 34165 ft 499 kts 80°
2026-05-01 08:29 53.10818 -169.23460 34191 ft 502 kts 80°
2026-05-01 08:30 53.12368 -169.12180 34197 ft 501 kts 80°
2026-05-01 08:30 53.13905 -169.00913 34169 ft 502 kts 80°
2026-05-01 08:31 53.15428 -168.89650 34176 ft 500 kts 80°
2026-05-01 08:31 53.16949 -168.78313 34194 ft 502 kts 80°
2026-05-01 08:32 53.18453 -168.67017 34174 ft 502 kts 80°
2026-05-01 08:32 53.19952 -168.55661 34201 ft 508 kts 80°
2026-05-01 08:33 53.21446 -168.44275 34172 ft 503 kts 80°
2026-05-01 08:33 53.22934 -168.32828 34209 ft 505 kts 81°
2026-05-01 08:34 53.24401 -168.21454 34185 ft 504 kts 81°
2026-05-01 08:34 53.25859 -168.10053 34188 ft 504 kts 81°
2026-05-01 08:35 53.27306 -167.98645 34200 ft 507 kts 81°
2026-05-01 08:35 53.28749 -167.87184 34159 ft 502 kts 81°
2026-05-01 08:36 53.30175 -167.75746 34188 ft 506 kts 81°
2026-05-01 08:36 53.31599 -167.64241 34197 ft 507 kts 81°
2026-05-01 08:37 53.33011 -167.52737 34207 ft 506 kts 81°
2026-05-01 08:37 53.34407 -167.41261 34213 ft 508 kts 81°
2026-05-01 08:38 53.35801 -167.29710 34205 ft 508 kts 82°
2026-05-01 08:38 53.37178 -167.18193 34207 ft 509 kts 82°
2026-05-01 08:39 53.38552 -167.06602 34185 ft 510 kts 82°
2026-05-01 08:39 53.39925 -166.94920 34173 ft 510 kts 82°
2026-05-01 08:40 53.41950 -166.77487 34208 ft 512 kts 82°
2026-05-01 08:40 53.43290 -166.65832 34197 ft 509 kts 82°
2026-05-01 08:41 53.44617 -166.54156 34226 ft 516 kts 83°
2026-05-01 08:41 53.45939 -166.42448 34230 ft 511 kts 82°
2026-05-01 08:42 53.47252 -166.30688 34225 ft 515 kts 83°
2026-05-01 08:42 53.48546 -166.19011 34201 ft 509 kts 83°
2026-05-01 08:43 53.49836 -166.07234 34241 ft 516 kts 83°
2026-05-01 08:43 53.51120 -165.95413 34223 ft 516 kts 84°
2026-05-01 08:44 53.52391 -165.83598 34236 ft 516 kts 84°
2026-05-01 08:44 53.53651 -165.71761 34231 ft 517 kts 84°
2026-05-01 08:45 53.54907 -165.59850 34247 ft 517 kts 84°
2026-05-01 08:45 53.56146 -165.47986 34243 ft 520 kts 84°
2026-05-01 08:46 53.57380 -165.36041 34242 ft 517 kts 84°
2026-05-01 08:46 53.58597 -165.24142 34256 ft 518 kts 85°
2026-05-01 08:47 53.59808 -165.12169 34262 ft 521 kts 85°
2026-05-01 08:47 53.61005 -165.00224 34258 ft 520 kts 85°
2026-05-01 08:48 53.62188 -164.88297 34243 ft 519 kts 85°
2026-05-01 08:48 53.63370 -164.76233 34267 ft 522 kts 85°
2026-05-01 08:49 53.64538 -164.64201 34277 ft 522 kts 85°
2026-05-01 08:49 53.65700 -164.52071 34274 ft 527 kts 85°
2026-05-01 08:50 53.66847 -164.39990 34286 ft 529 kts 85°
2026-05-01 08:50 53.67997 -164.27734 34288 ft 529 kts 86°
2026-05-01 08:51 53.69126 -164.15576 34274 ft 525 kts 86°
2026-05-01 08:51 53.70239 -164.03416 34270 ft 533 kts 86°
2026-05-01 08:52 53.71350 -163.91170 34296 ft 528 kts 86°
2026-05-01 08:52 53.72446 -163.78926 34315 ft 532 kts 86°
2026-05-01 08:53 53.73534 -163.66634 34325 ft 531 kts 86°
2026-05-01 08:53 53.74614 -163.54280 34309 ft 532 kts 86°
2026-05-01 08:54 53.75678 -163.41954 34297 ft 534 kts 86°
2026-05-01 08:54 53.76729 -163.29651 34294 ft 529 kts 87°
2026-05-01 08:55 53.77760 -163.17378 34297 ft 536 kts 87°
2026-05-01 08:55 53.78791 -163.04984 34313 ft 536 kts 88°
2026-05-01 08:56 53.79814 -162.92532 34335 ft 535 kts 88°
2026-05-01 08:56 53.80825 -162.80045 34343 ft 539 kts 88°
2026-05-01 08:57 53.81821 -162.67577 34332 ft 540 kts 87°
2026-05-01 08:57 53.82806 -162.55098 34364 ft 535 kts 88°
2026-05-01 08:58 53.83783 -162.42523 34326 ft 540 kts 88°
2026-05-01 08:58 53.84739 -162.30074 34363 ft 536 kts 89°
2026-05-01 08:59 53.85683 -162.17580 34415 ft 538 kts 89°
2026-05-01 08:59 53.86622 -162.04967 34333 ft 542 kts 88°
2026-05-01 09:00 53.87543 -161.92461 34299 ft 538 kts 88°
2026-05-01 09:00 53.88454 -161.79846 34379 ft 545 kts 88°
2026-05-01 09:01 53.89356 -161.67217 34353 ft 543 kts 89°
2026-05-01 09:01 53.90243 -161.54593 34419 ft 540 kts 89°
2026-05-01 09:02 53.91120 -161.41861 34342 ft 550 kts 89°
2026-05-01 09:02 53.91985 -161.29204 34394 ft 545 kts 89°
2026-05-01 09:03 53.92839 -161.16452 34409 ft 542 kts 89°
2026-05-01 09:03 53.93679 -161.03680 34440 ft 546 kts 89°
2026-05-01 09:04 53.94508 -160.90906 34400 ft 545 kts 89°
2026-05-01 09:04 53.95316 -160.78232 34407 ft 548 kts 90°
2026-05-01 09:05 53.96118 -160.65428 34437 ft 546 kts 90°
2026-05-01 09:05 53.96912 -160.52516 34385 ft 548 kts 90°
2026-05-01 09:06 53.97689 -160.39662 34374 ft 549 kts 90°
2026-05-01 09:06 53.98447 -160.26926 34458 ft 548 kts 91°
2026-05-01 09:07 53.98822 -160.20477 34357 ft 553 kts 90°
2026-05-01 09:07 53.99201 -160.13962 34354 ft 551 kts 90°
2026-05-01 09:07 53.99569 -160.07532 34471 ft 550 kts 92°
2026-05-01 09:07 53.99668 -160.01088 34434 ft 545 kts 99°
2026-05-01 09:08 53.99131 -159.88376 34371 ft 547 kts 102°
2026-05-01 09:08 53.98484 -159.75688 34403 ft 541 kts 103°
2026-05-01 09:09 53.97786 -159.63026 34480 ft 543 kts 103°
2026-05-01 09:09 53.97048 -159.50323 34398 ft 541 kts 103°
2026-05-01 09:10 53.96285 -159.37602 34460 ft 544 kts 103°
2026-05-01 09:10 53.95501 -159.24886 34445 ft 540 kts 104°
2026-05-01 09:11 53.94696 -159.12155 34425 ft 546 kts 104°
2026-05-01 09:11 53.93874 -158.99382 34441 ft 551 kts 105°
2026-05-01 09:12 53.93046 -158.86667 34459 ft 542 kts 105°
2026-05-01 09:12 53.92190 -158.73886 34449 ft 550 kts 104°
2026-05-01 09:13 53.91319 -158.61029 34439 ft 549 kts 104°
2026-05-01 09:13 53.90436 -158.48221 34449 ft 553 kts 104°
2026-05-01 09:14 53.89538 -158.35371 34458 ft 554 kts 104°
2026-05-01 09:14 53.88620 -158.22452 34453 ft 555 kts 105°
2026-05-01 09:15 53.87676 -158.09392 34446 ft 554 kts 105°
2026-05-01 09:15 53.86727 -157.96439 34431 ft 557 kts 105°
2026-05-01 09:16 53.85773 -157.83609 34462 ft 555 kts 105°
2026-05-01 09:17 53.84292 -157.64104 34506 ft 561 kts 105°
2026-05-01 09:17 53.82781 -157.44583 34486 ft 559 kts 105°
2026-05-01 09:18 53.81247 -157.25194 34450 ft 557 kts 106°
2026-05-01 09:19 53.79658 -157.05592 34486 ft 567 kts 105°
2026-05-01 09:20 53.78029 -156.85840 34465 ft 565 kts 106°
2026-05-01 09:21 53.75822 -156.59732 34501 ft 567 kts 105°
2026-05-01 09:21 53.74126 -156.40118 34478 ft 566 kts 105°
2026-05-01 09:22 53.71815 -156.14004 34481 ft 567 kts 105°
2026-05-01 09:23 53.70038 -155.94359 34515 ft 564 kts 105°
2026-05-01 09:24 53.68230 -155.74762 34516 ft 566 kts 105°
2026-05-01 09:25 53.65767 -155.48618 34524 ft 566 kts 105°
2026-05-01 09:26 53.63887 -155.29065 34529 ft 563 kts 106°
2026-05-01 09:26 53.61974 -155.09540 34539 ft 566 kts 105°
2026-05-01 09:27 53.60018 -154.89922 34548 ft 569 kts 105°
2026-05-01 09:28 53.58704 -154.76914 34551 ft 569 kts 105°
2026-05-01 09:28 53.57368 -154.63843 34561 ft 568 kts 105°
2026-05-01 09:29 53.55338 -154.44260 34578 ft 569 kts 105°
2026-05-01 09:30 53.53285 -154.24774 34593 ft 566 kts 106°
2026-05-01 09:30 53.51188 -154.05225 34580 ft 570 kts 105°
2026-05-01 09:31 53.49770 -153.92162 34584 ft 570 kts 105°
2026-05-01 09:32 53.47625 -153.72664 34596 ft 569 kts 105°
2026-05-01 09:32 53.45446 -153.53163 34591 ft 567 kts 105°
2026-05-01 09:33 53.43979 -153.40212 34623 ft 568 kts 105°
2026-05-01 09:34 53.41764 -153.20894 34641 ft 564 kts 106°
2026-05-01 09:34 53.39511 -153.01544 34657 ft 565 kts 105°
2026-05-01 09:35 53.37234 -152.82268 34656 ft 562 kts 105°
2026-05-01 09:36 53.35710 -152.69527 34653 ft 563 kts 105°
2026-05-01 09:36 53.34161 -152.56711 34663 ft 564 kts 105°
2026-05-01 09:37 53.32601 -152.43909 34682 ft 563 kts 105°
2026-05-01 09:37 53.30248 -152.24831 34687 ft 562 kts 105°
2026-05-01 09:38 53.27863 -152.05766 34703 ft 560 kts 105°
2026-05-01 09:39 53.25442 -151.86685 34711 ft 564 kts 105°
2026-05-01 09:39 53.23808 -151.73943 34716 ft 564 kts 105°
2026-05-01 09:40 53.21335 -151.54884 34720 ft 566 kts 104°
2026-05-01 09:41 53.19660 -151.42116 34755 ft 567 kts 105°
2026-05-01 09:41 53.17123 -151.22983 34743 ft 561 kts 105°
2026-05-01 09:42 53.15411 -151.10225 34777 ft 567 kts 105°
2026-05-01 09:43 53.11952 -150.84772 34760 ft 569 kts 105°
2026-05-01 09:43 53.10204 -150.72067 34772 ft 564 kts 105°
2026-05-01 09:44 53.07555 -150.53027 34817 ft 566 kts 105°
2026-05-01 09:45 53.05760 -150.40263 34826 ft 569 kts 104°
2026-05-01 09:45 53.03046 -150.21161 34802 ft 567 kts 105°
2026-05-01 09:46 53.01216 -150.08414 34804 ft 570 kts 105°
2026-05-01 09:46 52.99429 -149.95670 34819 ft 570 kts 100°
2026-05-01 09:47 52.98678 -149.82695 34835 ft 568 kts 93°
2026-05-01 09:47 52.98058 -149.69627 34866 ft 569 kts 94°
2026-05-01 09:48 52.97368 -149.56606 34865 ft 569 kts 94°
2026-05-01 09:48 52.96629 -149.43604 34863 ft 568 kts 95°
2026-05-01 09:49 52.95852 -149.30530 34867 ft 571 kts 96°
2026-05-01 09:49 52.95053 -149.17532 34886 ft 567 kts 95°
2026-05-01 09:50 52.94240 -149.04654 34898 ft 569 kts 95°
2026-05-01 09:50 52.93398 -148.91594 34898 ft 570 kts 95°
2026-05-01 09:51 52.92543 -148.78609 34894 ft 567 kts 95°
2026-05-01 09:51 52.91678 -148.65691 34958 ft 565 kts 95°
2026-05-01 09:52 52.90802 -148.52849 34919 ft 567 kts 95°
2026-05-01 09:52 52.89906 -148.39931 34939 ft 564 kts 94°
2026-05-01 09:53 52.88999 -148.27045 34936 ft 567 kts 96°
2026-05-01 09:53 52.88077 -148.14174 34932 ft 564 kts 95°
2026-05-01 09:54 52.87143 -148.01323 34947 ft 562 kts 95°
2026-05-01 09:54 52.86201 -147.88556 34987 ft 561 kts 96°
2026-05-01 09:55 52.85241 -147.75732 34990 ft 560 kts 95°
2026-05-01 09:55 52.84279 -147.63086 34958 ft 559 kts 95°
2026-05-01 09:56 52.83297 -147.50346 34968 ft 561 kts 95°
2026-05-01 09:56 52.82306 -147.37680 34973 ft 558 kts 95°
2026-05-01 09:57 52.81304 -147.25052 34982 ft 554 kts 96°
2026-05-01 09:57 52.80291 -147.12453 34968 ft 554 kts 96°
2026-05-01 09:58 52.79264 -146.99858 35050 ft 552 kts 95°
2026-05-01 09:58 52.78227 -146.87300 35036 ft 557 kts 96°
2026-05-01 09:59 52.77180 -146.74799 35057 ft 553 kts 95°
2026-05-01 09:59 52.76107 -146.62143 35025 ft 557 kts 95°
2026-05-01 10:00 52.75028 -146.49587 35017 ft 555 kts 95°
2026-05-01 10:00 52.73933 -146.36999 35050 ft 559 kts 94°
2026-05-01 10:01 52.72816 -146.24315 34997 ft 562 kts 95°
2026-05-01 10:01 52.71688 -146.11681 35087 ft 556 kts 95°
2026-05-01 10:02 52.70544 -145.99005 35068 ft 564 kts 96°
2026-05-01 10:02 52.69389 -145.86375 35049 ft 559 kts 96°
2026-05-01 10:03 52.68225 -145.73814 35088 ft 557 kts 95°
2026-05-01 10:03 52.67042 -145.61185 35090 ft 555 kts 96°
2026-05-01 10:04 52.65854 -145.48640 35099 ft 555 kts 95°
2026-05-01 10:04 52.64655 -145.36140 35127 ft 556 kts 95°
2026-05-01 10:05 52.63446 -145.23674 35083 ft 554 kts 96°
2026-05-01 10:05 52.62221 -145.11186 35117 ft 553 kts 96°
2026-05-01 10:06 52.60986 -144.98724 35121 ft 555 kts 96°
2026-05-01 10:06 52.59748 -144.86394 35147 ft 551 kts 97°
2026-05-01 10:07 52.58487 -144.73959 35145 ft 549 kts 97°
2026-05-01 10:07 52.57224 -144.61636 35123 ft 549 kts 96°
2026-05-01 10:08 52.55318 -144.43283 35165 ft 544 kts 97°
2026-05-01 10:09 52.54038 -144.31117 35163 ft 541 kts 98°
2026-05-01 10:09 52.52734 -144.18845 35158 ft 544 kts 97°
2026-05-01 10:10 52.51481 -144.07182 35172 ft 540 kts 98°
2026-05-01 10:10 52.49513 -143.89085 35179 ft 537 kts 98°
2026-05-01 10:11 52.48189 -143.77055 35175 ft 535 kts 98°
2026-05-01 10:11 52.46851 -143.65012 35202 ft 538 kts 97°
2026-05-01 10:12 52.45504 -143.53012 35214 ft 538 kts 98°
2026-05-01 10:13 52.43473 -143.35136 35214 ft 534 kts 98°
2026-05-01 10:13 52.42099 -143.23173 35221 ft 537 kts 98°
2026-05-01 10:14 52.40026 -143.05357 35220 ft 532 kts 98°
2026-05-01 10:14 52.38634 -142.93520 35235 ft 532 kts 98°
2026-05-01 10:15 52.37232 -142.81705 35234 ft 532 kts 98°
2026-05-01 10:15 52.35815 -142.69879 35247 ft 530 kts 98°
2026-05-01 10:16 52.34395 -142.58124 35257 ft 531 kts 98°
2026-05-01 10:17 52.32241 -142.40492 35249 ft 529 kts 98°
2026-05-01 10:17 52.30056 -142.22835 35251 ft 531 kts 98°
2026-05-01 10:18 52.27845 -142.05212 35259 ft 528 kts 98°
2026-05-01 10:19 52.26368 -141.93561 35265 ft 526 kts 98°
2026-05-01 10:19 52.24869 -141.81824 35263 ft 529 kts 99°
2026-05-01 10:20 52.22612 -141.64351 35287 ft 526 kts 99°
2026-05-01 10:20 52.21094 -141.52724 35287 ft 525 kts 98°
2026-05-01 10:21 52.18813 -141.35420 35299 ft 525 kts 99°
2026-05-01 10:22 52.16502 -141.18098 35311 ft 523 kts 99°
2026-05-01 10:23 52.14151 -141.00690 35311 ft 525 kts 99°
2026-05-01 10:23 52.11797 -140.83466 35328 ft 522 kts 99°
2026-05-01 10:24 52.08615 -140.60494 35327 ft 520 kts 99°
2026-05-01 10:25 52.05408 -140.37694 35320 ft 519 kts 99°
2026-05-01 10:26 52.03788 -140.26305 35316 ft 520 kts 100°
2026-05-01 10:27 52.00521 -140.03595 35329 ft 518 kts 100°
2026-05-01 10:28 51.98950 -139.86507 35328 ft 514 kts 90°
2026-05-01 10:28 51.98126 -139.69305 35327 ft 511 kts 91°
2026-05-01 10:29 51.97180 -139.52162 35321 ft 510 kts 91°
2026-05-01 10:30 51.95830 -139.29472 35320 ft 509 kts 92°
2026-05-01 10:31 51.94410 -139.06747 35331 ft 509 kts 92°
2026-05-01 10:32 51.93315 -138.89774 35322 ft 508 kts 92°
2026-05-01 10:33 51.91815 -138.67169 35321 ft 507 kts 93°
2026-05-01 10:34 51.90663 -138.50241 35321 ft 506 kts 93°
2026-05-01 10:34 51.89881 -138.38951 35311 ft 505 kts 93°
2026-05-01 10:35 51.89094 -138.27757 35175 ft 506 kts 94°
2026-05-01 10:35 51.88690 -138.22080 35247 ft 502 kts 94°
2026-05-01 10:35 51.88293 -138.16515 35457 ft 505 kts 94°
2026-05-01 10:35 51.87887 -138.10872 35323 ft 505 kts 94°
2026-05-01 10:36 51.86664 -137.94122 35297 ft 502 kts 94°
2026-05-01 10:37 51.85833 -137.82918 35297 ft 502 kts 94°
2026-05-01 10:37 51.84576 -137.66244 35297 ft 500 kts 94°
2026-05-01 10:38 51.83724 -137.55136 35293 ft 501 kts 94°
2026-05-01 10:38 51.82862 -137.44022 35292 ft 501 kts 94°
2026-05-01 10:39 51.81985 -137.32861 35295 ft 500 kts 95°
2026-05-01 10:39 51.81103 -137.21774 35278 ft 501 kts 95°
2026-05-01 10:40 51.80210 -137.10680 35284 ft 500 kts 95°
2026-05-01 10:40 51.79307 -136.99606 35279 ft 497 kts 95°
2026-05-01 10:41 51.78401 -136.88619 35275 ft 498 kts 95°
2026-05-01 10:42 51.77016 -136.72061 35275 ft 497 kts 95°
2026-05-01 10:42 51.76086 -136.61101 35269 ft 497 kts 95°
2026-05-01 10:43 51.75138 -136.50061 35146 ft 495 kts 96°
2026-05-01 10:43 51.74186 -136.39101 35205 ft 496 kts 96°
2026-05-01 10:44 51.73221 -136.28101 35262 ft 496 kts 97°
2026-05-01 10:44 51.72255 -136.17218 35253 ft 494 kts 97°
2026-05-01 10:45 51.71270 -136.06239 35266 ft 495 kts 97°
2026-05-01 10:45 51.70277 -135.95294 35263 ft 494 kts 97°
2026-05-01 10:46 51.69281 -135.84422 35256 ft 493 kts 97°
2026-05-01 10:46 51.68268 -135.73491 35421 ft 493 kts 97°
2026-05-01 10:46 51.67761 -135.68060 35159 ft 492 kts 97°
2026-05-01 10:47 51.67253 -135.62645 35392 ft 492 kts 97°
2026-05-01 10:47 51.66745 -135.57260 35263 ft 493 kts 97°
2026-05-01 10:47 51.66233 -135.51854 35243 ft 490 kts 97°
2026-05-01 10:48 51.65195 -135.40987 35257 ft 493 kts 97°
2026-05-01 10:48 51.64149 -135.30148 35228 ft 490 kts 98°
2026-05-01 10:49 51.63104 -135.19420 35228 ft 489 kts 98°
2026-05-01 10:49 51.62039 -135.08598 35236 ft 489 kts 98°
2026-05-01 10:50 51.60977 -134.97908 35220 ft 489 kts 98°
2026-05-01 10:50 51.59894 -134.87112 35239 ft 488 kts 99°
2026-05-01 10:51 51.58815 -134.76460 35237 ft 486 kts 99°
2026-05-01 10:51 51.57721 -134.65758 35233 ft 488 kts 99°
2026-05-01 10:52 51.56616 -134.55052 35231 ft 486 kts 99°
2026-05-01 10:52 51.55503 -134.44371 35211 ft 488 kts 99°
2026-05-01 10:53 51.54385 -134.33723 35234 ft 487 kts 99°
2026-05-01 10:53 51.53249 -134.23018 35165 ft 485 kts 100°
2026-05-01 10:53 51.52683 -134.17714 35294 ft 487 kts 100°
2026-05-01 10:54 51.52108 -134.12361 35196 ft 487 kts 100°
2026-05-01 10:54 51.50965 -134.01772 35198 ft 486 kts 100°
2026-05-01 10:55 51.49808 -133.91154 35207 ft 483 kts 100°
2026-05-01 10:55 51.48638 -133.80512 35212 ft 484 kts 99°
2026-05-01 10:56 51.47464 -133.69923 35234 ft 483 kts 100°
2026-05-01 10:56 51.46279 -133.59319 35240 ft 485 kts 100°
2026-05-01 10:57 51.45087 -133.48755 35271 ft 484 kts 99°
2026-05-01 10:57 51.43892 -133.38245 35239 ft 483 kts 99°
2026-05-01 10:58 51.42681 -133.27692 35221 ft 482 kts 101°
2026-05-01 10:58 51.41471 -133.17223 35153 ft 480 kts 100°
2026-05-01 10:59 51.40243 -133.06696 35237 ft 482 kts 100°
2026-05-01 10:59 51.39012 -132.96220 35204 ft 481 kts 100°
2026-05-01 11:00 51.37773 -132.85767 35243 ft 479 kts 101°
2026-05-01 11:00 51.36531 -132.75375 35233 ft 479 kts 100°
2026-05-01 11:01 51.35277 -132.64958 35236 ft 479 kts 101°
2026-05-01 11:01 51.34013 -132.54544 35247 ft 479 kts 101°
2026-05-01 11:02 51.32740 -132.44136 35200 ft 480 kts 101°
2026-05-01 11:02 51.31457 -132.33733 35231 ft 479 kts 102°
2026-05-01 11:03 51.30167 -132.23346 35220 ft 477 kts 101°
2026-05-01 11:03 51.28862 -132.12924 35238 ft 477 kts 101°
2026-05-01 11:04 51.27561 -132.02609 35221 ft 477 kts 102°
2026-05-01 11:04 51.26244 -131.92247 35220 ft 478 kts 102°
2026-05-01 11:05 51.24920 -131.81906 35248 ft 479 kts 102°
2026-05-01 11:05 51.23581 -131.71527 35163 ft 477 kts 102°
2026-05-01 11:06 51.22228 -131.61118 35193 ft 480 kts 102°
2026-05-01 11:06 51.20874 -131.50780 35214 ft 478 kts 102°
2026-05-01 11:07 51.18833 -131.35330 35202 ft 478 kts 102°
2026-05-01 11:07 51.17457 -131.25006 35198 ft 478 kts 103°
2026-05-01 11:08 51.16069 -131.14676 35207 ft 480 kts 103°
2026-05-01 11:09 51.13970 -130.99179 35139 ft 477 kts 104°
2026-05-01 11:09 51.12570 -130.88939 35171 ft 478 kts 104°
2026-05-01 11:10 51.10448 -130.73547 35228 ft 477 kts 105°
2026-05-01 11:10 51.09016 -130.63254 35202 ft 478 kts 104°
2026-05-01 11:11 51.07576 -130.52972 35203 ft 478 kts 105°
2026-05-01 11:11 51.06121 -130.42656 35187 ft 479 kts 105°
2026-05-01 11:12 51.04664 -130.32394 35196 ft 477 kts 106°
2026-05-01 11:12 51.03198 -130.22139 35176 ft 479 kts 106°
2026-05-01 11:13 51.01720 -130.11868 35185 ft 478 kts 106°
2026-05-01 11:13 51.00236 -130.01625 35176 ft 480 kts 107°
2026-05-01 11:14 50.99219 -129.91187 35178 ft 484 kts 97°
2026-05-01 11:14 50.98742 -129.80591 35171 ft 484 kts 97°
2026-05-01 11:15 50.98202 -129.69957 35168 ft 484 kts 98°
2026-05-01 11:15 50.97621 -129.59369 35169 ft 485 kts 98°
2026-05-01 11:16 50.97010 -129.48747 35167 ft 485 kts 98°
2026-05-01 11:16 50.96382 -129.38188 35164 ft 484 kts 98°
2026-05-01 11:17 50.95736 -129.27565 35169 ft 483 kts 99°
2026-05-01 11:17 50.95084 -129.17042 35172 ft 484 kts 99°
2026-05-01 11:18 50.94415 -129.06444 35174 ft 484 kts 99°
2026-05-01 11:18 50.93735 -128.95842 35174 ft 484 kts 99°
2026-05-01 11:19 50.93046 -128.85252 35173 ft 486 kts 99°
2026-05-01 11:19 50.92348 -128.74677 35171 ft 484 kts 99°
2026-05-01 11:20 50.91639 -128.64098 35171 ft 487 kts 99°
2026-05-01 11:20 50.90915 -128.53430 35164 ft 488 kts 99°
2026-05-01 11:21 50.90183 -128.42793 35157 ft 490 kts 99°
2026-05-01 11:21 50.89437 -128.32095 35166 ft 488 kts 100°
2026-05-01 11:22 50.88686 -128.21475 35151 ft 489 kts 100°
2026-05-01 11:22 50.87922 -128.10811 35152 ft 490 kts 100°
2026-05-01 11:23 50.87147 -128.00139 35126 ft 488 kts 101°
2026-05-01 11:23 50.86369 -127.89550 35097 ft 491 kts 101°
2026-05-01 11:24 50.85572 -127.78839 35127 ft 490 kts 100°
2026-05-01 11:25 50.84355 -127.62749 35151 ft 494 kts 100°
2026-05-01 11:25 50.83113 -127.46620 35155 ft 493 kts 100°
2026-05-01 11:26 50.81852 -127.30540 35185 ft 493 kts 101°
2026-05-01 11:27 50.80998 -127.19826 35183 ft 494 kts 101°
2026-05-01 11:27 50.80134 -127.09100 35166 ft 495 kts 101°
2026-05-01 11:28 50.79257 -126.98347 35156 ft 495 kts 101°
2026-05-01 11:28 50.78367 -126.87558 35147 ft 498 kts 101°
2026-05-01 11:29 50.77018 -126.71436 35108 ft 498 kts 101°
2026-05-01 11:30 50.75638 -126.55213 35111 ft 499 kts 101°
2026-05-01 11:30 50.74712 -126.44482 35118 ft 498 kts 101°
2026-05-01 11:31 50.73769 -126.33663 35110 ft 497 kts 102°
2026-05-01 11:31 50.72819 -126.22893 35111 ft 496 kts 102°
2026-05-01 11:32 50.71864 -126.12186 35075 ft 497 kts 102°
2026-05-01 11:32 50.70889 -126.01372 35091 ft 498 kts 102°
2026-05-01 11:33 50.69912 -125.90642 35101 ft 501 kts 102°
2026-05-01 11:33 50.68917 -125.79839 35095 ft 501 kts 102°
2026-05-01 11:34 50.67909 -125.68986 35097 ft 500 kts 102°
2026-05-01 11:34 50.66891 -125.58164 35095 ft 501 kts 102°
2026-05-01 11:35 50.65864 -125.47343 35114 ft 500 kts 102°
2026-05-01 11:35 50.64831 -125.36567 35128 ft 500 kts 102°
2026-05-01 11:36 50.63793 -125.25853 35114 ft 499 kts 102°
2026-05-01 11:36 50.62733 -125.15019 35097 ft 499 kts 102°
2026-05-01 11:37 50.61670 -125.04262 35095 ft 501 kts 102°
2026-05-01 11:37 50.60596 -124.93499 35111 ft 501 kts 102°
2026-05-01 11:38 50.59509 -124.82705 35104 ft 499 kts 102°
2026-05-01 11:38 50.58421 -124.72004 35126 ft 501 kts 102°
2026-05-01 11:39 50.57314 -124.61226 35112 ft 501 kts 102°
2026-05-01 11:39 50.56195 -124.50426 35123 ft 502 kts 102°
2026-05-01 11:40 50.55071 -124.39681 35136 ft 500 kts 102°
2026-05-01 11:40 50.53937 -124.28934 35123 ft 498 kts 103°
2026-05-01 11:41 50.52792 -124.18195 35129 ft 500 kts 103°
2026-05-01 11:41 50.51642 -124.07498 35132 ft 499 kts 102°
2026-05-01 11:42 50.50481 -123.96803 35131 ft 498 kts 102°
2026-05-01 11:42 50.49307 -123.86079 35127 ft 500 kts 102°
2026-05-01 11:43 50.48128 -123.75401 35126 ft 501 kts 103°
2026-05-01 11:43 50.46933 -123.64674 35132 ft 500 kts 102°
2026-05-01 11:44 50.45123 -123.48605 35143 ft 499 kts 102°
2026-05-01 11:44 50.43903 -123.37886 35144 ft 501 kts 102°
2026-05-01 11:45 50.42679 -123.27226 35142 ft 498 kts 103°
2026-05-01 11:45 50.41447 -123.16582 35139 ft 501 kts 103°
2026-05-01 11:46 50.40197 -123.05883 35137 ft 499 kts 103°
2026-05-01 11:46 50.38945 -122.95247 35140 ft 499 kts 103°
2026-05-01 11:47 50.37683 -122.84616 35133 ft 500 kts 103°
2026-05-01 11:47 50.36410 -122.73979 35139 ft 499 kts 103°
2026-05-01 11:48 50.35122 -122.63314 35140 ft 498 kts 102°
2026-05-01 11:48 50.33831 -122.52701 35130 ft 499 kts 103°
2026-05-01 11:49 50.32530 -122.42091 35129 ft 499 kts 103°
2026-05-01 11:49 50.31215 -122.31445 35130 ft 498 kts 104°
2026-05-01 11:50 50.29898 -122.20879 35139 ft 500 kts 103°
2026-05-01 11:50 50.28568 -122.10287 35144 ft 500 kts 103°
2026-05-01 11:51 50.27215 -121.99595 35139 ft 501 kts 103°
2026-05-01 11:51 50.25859 -121.88963 35132 ft 501 kts 103°
2026-05-01 11:52 50.24497 -121.78368 35137 ft 499 kts 103°
2026-05-01 11:52 50.23133 -121.67833 35135 ft 500 kts 103°
2026-05-01 11:53 50.21753 -121.57260 35115 ft 500 kts 103°
2026-05-01 11:53 50.20354 -121.46618 35112 ft 499 kts 103°
2026-05-01 11:54 50.18966 -121.36135 35105 ft 497 kts 103°
2026-05-01 11:54 50.17563 -121.25618 35103 ft 496 kts 104°
2026-05-01 11:55 50.16152 -121.15124 35111 ft 496 kts 103°
2026-05-01 11:55 50.14738 -121.04681 35105 ft 495 kts 103°
2026-05-01 11:56 50.13311 -120.94214 35100 ft 496 kts 103°
2026-05-01 11:56 50.11873 -120.83745 35108 ft 497 kts 103°
2026-05-01 11:57 50.10425 -120.73274 35112 ft 497 kts 103°
2026-05-01 11:57 50.08968 -120.62820 35113 ft 496 kts 103°
2026-05-01 11:58 50.07498 -120.52339 35123 ft 496 kts 103°
2026-05-01 11:59 50.05286 -120.36713 35121 ft 496 kts 103°
2026-05-01 11:59 50.03794 -120.26257 35136 ft 495 kts 103°
2026-05-01 12:00 50.01540 -120.10604 35136 ft 496 kts 103°
2026-05-01 12:01 49.99386 -119.94982 35153 ft 497 kts 99°
2026-05-01 12:01 49.98399 -119.84327 35156 ft 497 kts 98°
2026-05-01 12:02 49.97401 -119.73769 35165 ft 498 kts 98°
2026-05-01 12:02 49.96376 -119.63203 35121 ft 496 kts 99°
2026-05-01 12:03 49.95329 -119.52618 35110 ft 497 kts 99°
2026-05-01 12:03 49.94267 -119.42037 35111 ft 499 kts 99°
2026-05-01 12:04 49.93193 -119.31463 35113 ft 497 kts 100°
2026-05-01 12:04 49.92110 -119.20911 35108 ft 498 kts 100°
2026-05-01 12:05 49.91021 -119.10410 35156 ft 496 kts 100°
2026-05-01 12:05 49.89360 -118.94578 35185 ft 496 kts 100°
2026-05-01 12:06 49.88245 -118.84080 35184 ft 498 kts 100°
2026-05-01 12:06 49.87113 -118.73505 35172 ft 496 kts 100°
2026-05-01 12:07 49.85981 -118.63032 35177 ft 495 kts 100°
2026-05-01 12:07 49.84842 -118.52578 35191 ft 493 kts 99°
2026-05-01 12:08 49.83696 -118.42158 35191 ft 494 kts 99°
2026-05-01 12:08 49.82541 -118.31750 35174 ft 493 kts 100°
2026-05-01 12:09 49.81378 -118.21351 35155 ft 493 kts 100°
2026-05-01 12:09 49.80198 -118.10896 35182 ft 493 kts 100°
2026-05-01 12:10 49.78428 -117.95364 35241 ft 491 kts 100°
2026-05-01 12:11 49.76637 -117.79846 35242 ft 489 kts 100°
2026-05-01 12:11 49.75429 -117.69496 35268 ft 491 kts 100°
2026-05-01 12:12 49.74216 -117.59177 35209 ft 489 kts 100°
2026-05-01 12:12 49.72998 -117.48898 35174 ft 489 kts 100°
2026-05-01 12:13 49.71769 -117.38607 35183 ft 488 kts 100°
2026-05-01 12:13 49.70525 -117.28271 35201 ft 489 kts 101°
2026-05-01 12:14 49.69275 -117.17969 35230 ft 489 kts 101°
2026-05-01 12:14 49.68021 -117.07720 35230 ft 488 kts 101°
2026-05-01 12:15 49.66756 -116.97459 35298 ft 495 kts 101°
2026-05-01 12:15 49.66105 -116.92208 36006 ft 495 kts 101°
2026-05-01 12:15 49.65464 -116.87054 36667 ft 487 kts 101°
2026-05-01 12:16 49.64831 -116.81985 37265 ft 487 kts 101°
2026-05-01 12:16 49.64184 -116.76828 37250 ft 488 kts 101°
2026-05-01 12:16 49.62907 -116.66697 37581 ft 484 kts 101°
2026-05-01 12:17 49.62259 -116.61586 37082 ft 484 kts 101°
2026-05-01 12:17 49.61615 -116.56525 37575 ft 482 kts 101°
2026-05-01 12:17 49.60968 -116.51469 37276 ft 486 kts 101°
2026-05-01 12:17 49.60320 -116.46408 37218 ft 480 kts 101°
2026-05-01 12:18 49.59022 -116.36343 37212 ft 483 kts 101°
2026-05-01 12:18 49.57712 -116.26253 37213 ft 482 kts 102°
2026-05-01 12:19 49.56384 -116.16098 37175 ft 481 kts 102°
2026-05-01 12:19 49.55055 -116.06093 37180 ft 482 kts 102°
2026-05-01 12:20 49.53598 -115.96032 37186 ft 482 kts 103°
2026-05-01 12:20 49.52136 -115.86021 37182 ft 481 kts 103°
2026-05-01 12:21 49.50677 -115.76069 37182 ft 480 kts 102°
2026-05-01 12:21 49.49198 -115.66032 37178 ft 481 kts 102°
2026-05-01 12:22 49.47723 -115.56081 37181 ft 481 kts 102°
2026-05-01 12:22 49.46242 -115.46152 37183 ft 482 kts 103°
2026-05-01 12:23 49.44745 -115.36173 37181 ft 479 kts 102°
2026-05-01 12:23 49.43247 -115.26253 37205 ft 479 kts 103°
2026-05-01 12:24 49.41731 -115.16276 37199 ft 478 kts 103°
2026-05-01 12:24 49.40225 -115.06427 37207 ft 477 kts 103°
2026-05-01 12:25 49.37937 -114.91574 37219 ft 478 kts 103°
2026-05-01 12:26 49.36405 -114.81702 37237 ft 475 kts 103°
2026-05-01 12:26 49.34096 -114.66941 37235 ft 476 kts 103°
2026-05-01 12:27 49.31769 -114.52202 37207 ft 477 kts 103°
2026-05-01 12:28 49.29430 -114.37515 37197 ft 475 kts 103°
2026-05-01 12:28 49.27859 -114.27722 36815 ft 472 kts 104°
2026-05-01 12:29 49.27085 -114.22921 37240 ft 473 kts 104°
2026-05-01 12:29 49.24717 -114.08311 36813 ft 471 kts 104°
2026-05-01 12:30 49.23132 -113.98601 37299 ft 475 kts 104°
2026-05-01 12:30 49.22328 -113.93698 36840 ft 476 kts 104°
2026-05-01 12:30 49.21534 -113.88872 37087 ft 470 kts 103°
2026-05-01 12:31 49.20733 -113.84015 37159 ft 475 kts 104°
2026-05-01 12:31 49.19121 -113.74279 36946 ft 475 kts 104°
2026-05-01 12:31 49.18312 -113.69419 37292 ft 471 kts 104°
2026-05-01 12:32 49.17498 -113.64540 36772 ft 473 kts 104°
2026-05-01 12:32 49.15872 -113.54834 37058 ft 477 kts 103°
2026-05-01 12:32 49.15059 -113.50003 37160 ft 472 kts 103°
2026-05-01 12:33 49.14242 -113.45158 37427 ft 474 kts 103°
2026-05-01 12:33 49.13424 -113.40325 36968 ft 470 kts 103°
2026-05-01 12:33 49.12613 -113.35546 37428 ft 471 kts 103°
2026-05-01 12:33 49.11785 -113.30677 36800 ft 474 kts 104°
2026-05-01 12:34 49.10962 -113.25854 37229 ft 471 kts 104°
2026-05-01 12:34 49.10136 -113.21026 37113 ft 470 kts 104°
2026-05-01 12:34 49.08485 -113.11416 37115 ft 473 kts 104°
2026-05-01 12:35 49.06819 -113.01771 37099 ft 471 kts 104°
2026-05-01 12:35 49.05152 -112.92172 37095 ft 471 kts 104°
2026-05-01 12:36 49.03475 -112.82568 37109 ft 469 kts 104°
2026-05-01 12:36 49.01790 -112.72969 37090 ft 470 kts 104°
2026-05-01 12:37 49.00095 -112.63370 37081 ft 472 kts 104°
2026-05-01 12:37 48.98383 -112.53722 37075 ft 471 kts 104°
2026-05-01 12:38 48.96677 -112.44163 37073 ft 471 kts 104°
2026-05-01 12:38 48.94959 -112.34586 37069 ft 472 kts 104°
2026-05-01 12:39 48.93231 -112.25002 37224 ft 471 kts 104°
2026-05-01 12:39 48.92362 -112.20203 36836 ft 476 kts 104°
2026-05-01 12:39 48.91486 -112.15376 36988 ft 470 kts 104°
2026-05-01 12:40 48.90619 -112.10613 37362 ft 474 kts 104°
2026-05-01 12:40 48.89747 -112.05837 37076 ft 472 kts 104°
2026-05-01 12:40 48.87995 -111.96275 37049 ft 470 kts 104°
2026-05-01 12:41 48.86247 -111.86777 37052 ft 470 kts 104°
2026-05-01 12:41 48.84488 -111.77276 37055 ft 470 kts 104°
2026-05-01 12:42 48.83602 -111.72514 36700 ft 470 kts 104°
2026-05-01 12:42 48.82716 -111.67751 36815 ft 472 kts 104°
2026-05-01 12:42 48.81829 -111.63004 37064 ft 471 kts 104°
2026-05-01 12:42 48.80935 -111.58227 37046 ft 472 kts 104°
2026-05-01 12:43 48.80031 -111.53414 37214 ft 471 kts 104°
2026-05-01 12:43 48.79144 -111.48704 37056 ft 467 kts 104°
2026-05-01 12:43 48.77356 -111.39236 37060 ft 470 kts 103°
2026-05-01 12:44 48.75594 -111.29959 37065 ft 470 kts 104°
2026-05-01 12:45 48.71981 -111.11070 37062 ft 470 kts 104°
2026-05-01 12:45 48.71068 -111.06326 36729 ft 470 kts 104°
2026-05-01 12:45 48.70162 -111.01634 37233 ft 469 kts 104°
2026-05-01 12:46 48.69247 -110.96903 37057 ft 468 kts 104°
2026-05-01 12:46 48.68335 -110.92202 37062 ft 467 kts 104°
2026-05-01 12:46 48.66511 -110.82827 37066 ft 468 kts 104°
2026-05-01 12:47 48.64673 -110.73431 36711 ft 468 kts 104°
2026-05-01 12:47 48.63740 -110.68680 36973 ft 470 kts 104°
2026-05-01 12:47 48.62813 -110.63968 37061 ft 471 kts 103°
2026-05-01 12:48 48.60959 -110.54582 37063 ft 470 kts 103°
2026-05-01 12:48 48.59090 -110.45166 37066 ft 469 kts 103°
2026-05-01 12:49 48.57214 -110.35760 37063 ft 468 kts 103°
2026-05-01 12:49 48.55346 -110.26440 37076 ft 468 kts 104°
2026-05-01 12:50 48.53451 -110.17027 37070 ft 467 kts 104°
2026-05-01 12:50 48.51567 -110.07713 37075 ft 466 kts 103°
2026-05-01 12:51 48.49687 -109.98447 37089 ft 468 kts 103°
2026-05-01 12:52 48.47016 -109.84364 37141 ft 466 kts 102°
2026-05-01 12:52 48.44340 -109.70343 37140 ft 464 kts 102°
2026-05-01 12:53 48.41658 -109.56415 37112 ft 464 kts 102°
2026-05-01 12:54 48.39850 -109.47084 37086 ft 466 kts 102°
2026-05-01 12:54 48.37129 -109.33144 37092 ft 465 kts 103°
2026-05-01 12:55 48.34391 -109.19216 37096 ft 465 kts 102°
2026-05-01 12:56 48.32565 -109.09988 37096 ft 462 kts 102°
2026-05-01 12:56 48.30730 -109.00749 37093 ft 465 kts 102°
2026-05-01 12:57 48.28889 -108.91528 37094 ft 466 kts 102°
2026-05-01 12:57 48.26111 -108.77702 37090 ft 462 kts 102°
2026-05-01 12:58 48.24245 -108.68463 37098 ft 463 kts 102°
2026-05-01 12:59 48.21441 -108.54665 37101 ft 464 kts 102°
2026-05-01 12:59 48.18612 -108.40836 37096 ft 467 kts 102°
2026-05-01 13:00 48.15773 -108.27065 37106 ft 464 kts 102°
2026-05-01 13:01 48.12915 -108.13293 37100 ft 462 kts 102°
2026-05-01 13:02 48.10030 -107.99479 37092 ft 464 kts 102°
2026-05-01 13:07 47.88484 -106.99209 37095 ft 461 kts 102°
2026-05-01 13:08 47.86488 -106.90158 37097 ft 463 kts 102°
2026-05-01 13:08 47.84480 -106.81096 37093 ft 463 kts 102°
2026-05-01 13:09 47.82473 -106.72075 37098 ft 464 kts 102°
2026-05-01 13:09 47.80448 -106.63017 37087 ft 464 kts 102°
2026-05-01 13:10 47.78408 -106.53925 37096 ft 463 kts 102°
2026-05-01 13:10 47.76372 -106.44894 37094 ft 464 kts 101°
2026-05-01 13:11 47.74331 -106.35877 37083 ft 463 kts 101°
2026-05-01 13:11 47.72277 -106.26839 37083 ft 466 kts 102°
2026-05-01 13:12 47.70198 -106.17732 37098 ft 464 kts 102°
2026-05-01 13:12 47.68133 -106.08729 37094 ft 465 kts 102°
2026-05-01 13:13 47.66054 -105.99699 37084 ft 465 kts 102°
2026-05-01 13:13 47.63964 -105.90659 37082 ft 465 kts 102°
2026-05-01 13:14 47.61857 -105.81583 37099 ft 466 kts 102°
2026-05-01 13:14 47.59764 -105.72607 37089 ft 465 kts 102°
2026-05-01 13:15 47.57651 -105.63581 37091 ft 467 kts 102°
2026-05-01 13:15 47.55521 -105.54520 37112 ft 467 kts 102°
2026-05-01 13:16 47.53386 -105.45477 37100 ft 467 kts 102°
2026-05-01 13:16 47.51257 -105.36496 37083 ft 466 kts 102°
2026-05-01 13:17 47.46936 -105.18382 37100 ft 468 kts 102°
2026-05-01 13:18 47.43684 -105.04842 37095 ft 469 kts 102°
2026-05-01 13:18 47.41500 -104.95798 37090 ft 469 kts 102°
2026-05-01 13:19 47.39310 -104.86768 37084 ft 469 kts 102°
2026-05-01 13:20 47.36014 -104.73244 37106 ft 469 kts 102°
2026-05-01 13:20 47.33813 -104.64254 37078 ft 469 kts 102°
2026-05-01 13:21 47.30473 -104.50688 37088 ft 470 kts 102°
2026-05-01 13:21 47.28255 -104.41725 37080 ft 468 kts 102°
2026-05-01 13:22 47.26018 -104.32717 37116 ft 472 kts 102°
2026-05-01 13:22 47.23762 -104.23676 37103 ft 468 kts 102°
2026-05-01 13:23 47.21513 -104.14687 37086 ft 471 kts 102°
2026-05-01 13:23 47.19257 -104.05712 37067 ft 474 kts 102°
2026-05-01 13:24 47.16986 -103.96721 37067 ft 468 kts 102°
2026-05-01 13:25 47.13559 -103.83202 37131 ft 472 kts 102°
2026-05-01 13:25 47.11272 -103.74235 37085 ft 472 kts 102°
2026-05-01 13:26 47.08968 -103.65225 37162 ft 473 kts 102°
2026-05-01 13:26 47.07809 -103.60712 37049 ft 473 kts 102°
2026-05-01 13:26 47.06654 -103.56219 37052 ft 473 kts 102°
2026-05-01 13:27 47.04345 -103.47260 37114 ft 477 kts 102°
2026-05-01 13:27 47.00853 -103.33791 37068 ft 475 kts 103°
2026-05-01 13:28 46.97335 -103.20297 37108 ft 473 kts 103°
2026-05-01 13:29 46.92625 -103.02348 37124 ft 475 kts 103°
2026-05-01 13:31 46.85399 -102.75343 37114 ft 479 kts 105°
2026-05-01 13:32 46.78859 -102.53115 37092 ft 480 kts 105°
2026-05-01 13:33 46.72217 -102.30778 37141 ft 484 kts 107°
2026-05-01 13:34 46.66865 -102.12935 37117 ft 483 kts 107°
2026-05-01 13:35 46.64169 -102.03989 36982 ft 488 kts 107°
2026-05-01 13:35 46.62823 -101.99544 37241 ft 481 kts 107°
2026-05-01 13:36 46.58785 -101.86234 37132 ft 482 kts 107°
2026-05-01 13:36 46.54711 -101.72871 37114 ft 488 kts 107°
2026-05-01 13:37 46.51982 -101.63972 37090 ft 484 kts 107°
2026-05-01 13:37 46.49236 -101.55040 37126 ft 484 kts 107°
2026-05-01 13:38 46.45116 -101.41696 37141 ft 487 kts 107°
2026-05-01 13:39 46.42346 -101.32769 37165 ft 488 kts 108°
2026-05-01 13:39 46.39561 -101.23821 37132 ft 488 kts 108°
2026-05-01 13:40 46.36758 -101.14846 37161 ft 493 kts 109°
2026-05-01 13:40 46.33962 -101.05930 37109 ft 490 kts 109°
2026-05-01 13:41 46.31131 -100.96931 37137 ft 491 kts 109°
2026-05-01 13:41 46.28291 -100.87933 37159 ft 493 kts 109°
2026-05-01 13:42 46.25480 -100.79063 37117 ft 489 kts 109°
2026-05-01 13:42 46.22646 -100.70149 37116 ft 490 kts 109°
2026-05-01 13:43 46.19789 -100.61189 37108 ft 493 kts 109°
2026-05-01 13:43 46.16927 -100.52251 37151 ft 492 kts 110°
2026-05-01 13:44 46.14081 -100.43392 37129 ft 493 kts 110°
2026-05-01 13:44 46.11193 -100.34433 37170 ft 492 kts 110°
2026-05-01 13:45 46.08303 -100.25497 37119 ft 492 kts 111°
2026-05-01 13:45 46.05402 -100.16557 37160 ft 497 kts 110°
2026-05-01 13:46 46.02508 -100.07678 37193 ft 492 kts 110°
2026-05-01 13:46 45.99607 -99.98793 37154 ft 494 kts 110°
2026-05-01 13:47 45.97004 -99.89748 37166 ft 493 kts 108°
2026-05-01 13:47 45.94407 -99.80599 37200 ft 493 kts 108°
2026-05-01 13:48 45.91809 -99.71524 37163 ft 493 kts 108°
2026-05-01 13:48 45.89222 -99.62553 37145 ft 490 kts 108°
2026-05-01 13:49 45.86611 -99.53535 37168 ft 492 kts 108°
2026-05-01 13:49 45.83981 -99.44500 37154 ft 492 kts 109°
2026-05-01 13:50 45.81347 -99.35484 37147 ft 493 kts 109°
2026-05-01 13:50 45.78694 -99.26438 37160 ft 495 kts 109°
2026-05-01 13:51 45.76036 -99.17413 37153 ft 494 kts 109°
2026-05-01 13:51 45.73373 -99.08402 37153 ft 495 kts 110°
2026-05-01 13:52 45.70698 -98.99384 37155 ft 493 kts 110°
2026-05-01 13:52 45.68012 -98.90363 37166 ft 492 kts 110°
2026-05-01 13:53 45.65328 -98.81377 37155 ft 494 kts 110°
2026-05-01 13:53 45.61270 -98.67855 37176 ft 495 kts 110°
2026-05-01 13:54 45.58561 -98.58868 37168 ft 495 kts 110°
2026-05-01 13:54 45.55856 -98.49926 37206 ft 496 kts 110°
2026-05-01 13:55 45.53127 -98.40940 37224 ft 495 kts 110°
2026-05-01 13:55 45.50400 -98.31988 37240 ft 495 kts 111°
2026-05-01 13:56 45.47661 -98.23032 37232 ft 495 kts 111°
2026-05-01 13:56 45.44913 -98.14076 37178 ft 498 kts 111°
2026-05-01 13:57 45.42614 -98.06606 37186 ft 497 kts 111°
2026-05-01 13:57 45.39371 -97.96110 37166 ft 496 kts 111°
2026-05-01 13:58 45.36594 -97.87155 37181 ft 497 kts 111°
2026-05-01 13:58 45.33804 -97.78187 37164 ft 497 kts 111°
2026-05-01 13:59 45.31021 -97.69277 37136 ft 496 kts 112°
2026-05-01 13:59 45.28226 -97.60357 37158 ft 495 kts 111°
2026-05-01 14:00 45.25422 -97.51438 37154 ft 498 kts 112°
2026-05-01 14:00 45.22606 -97.42512 37177 ft 499 kts 112°
2026-05-01 14:01 45.19771 -97.33562 37150 ft 497 kts 112°
2026-05-01 14:01 45.16949 -97.24680 37144 ft 498 kts 113°
2026-05-01 14:02 45.14124 -97.15819 37145 ft 496 kts 113°
2026-05-01 14:02 45.11272 -97.06902 37135 ft 497 kts 113°
2026-05-01 14:03 45.08425 -96.98034 37165 ft 497 kts 112°
2026-05-01 14:03 45.05577 -96.89192 37147 ft 499 kts 113°
2026-05-01 14:04 45.02700 -96.80291 37151 ft 498 kts 113°
2026-05-01 14:04 45.00308 -96.72912 37170 ft 499 kts 113°
2026-05-01 14:05 44.96939 -96.62556 37170 ft 499 kts 113°
2026-05-01 14:05 44.94042 -96.53682 37165 ft 497 kts 113°
2026-05-01 14:06 44.91148 -96.44847 37200 ft 499 kts 113°
2026-05-01 14:06 44.88240 -96.36003 37212 ft 500 kts 113°
2026-05-01 14:07 44.85318 -96.27141 37215 ft 500 kts 114°
2026-05-01 14:08 44.80926 -96.13880 37208 ft 501 kts 114°
2026-05-01 14:08 44.77978 -96.05018 37207 ft 502 kts 114°
2026-05-01 14:09 44.75011 -95.96125 37175 ft 500 kts 114°
2026-05-01 14:09 44.72079 -95.87367 37143 ft 500 kts 114°
2026-05-01 14:10 44.69115 -95.78545 37185 ft 502 kts 114°
2026-05-01 14:10 44.66139 -95.69714 37196 ft 502 kts 114°
2026-05-01 14:11 44.63153 -95.60884 37200 ft 501 kts 114°
2026-05-01 14:11 44.58665 -95.47667 37187 ft 502 kts 114°
2026-05-01 14:12 44.55657 -95.38844 37155 ft 503 kts 114°
2026-05-01 14:12 44.52646 -95.30043 37150 ft 500 kts 115°
2026-05-01 14:13 44.50150 -95.22766 37155 ft 504 kts 115°
2026-05-01 14:13 44.46526 -95.12544 37158 ft 503 kts 120°
2026-05-01 14:14 44.42931 -95.04130 37164 ft 505 kts 121°
2026-05-01 14:14 44.39314 -94.95780 37150 ft 505 kts 121°
2026-05-01 14:15 44.35682 -94.87438 37151 ft 504 kts 121°
2026-05-01 14:15 44.32026 -94.79069 37143 ft 505 kts 121°
2026-05-01 14:16 44.28367 -94.70721 37156 ft 505 kts 121°
2026-05-01 14:16 44.24720 -94.62427 37175 ft 506 kts 121°
2026-05-01 14:17 44.21051 -94.54111 37167 ft 507 kts 121°
2026-05-01 14:17 44.17367 -94.45783 37160 ft 507 kts 121°
2026-05-01 14:18 44.13668 -94.37445 37157 ft 507 kts 121°
2026-05-01 14:18 44.10591 -94.30529 37125 ft 506 kts 122°
2026-05-01 14:19 44.06278 -94.20862 37123 ft 507 kts 122°
2026-05-01 14:19 44.02555 -94.12544 37121 ft 508 kts 122°
2026-05-01 14:20 43.96994 -94.00163 37114 ft 507 kts 122°
2026-05-01 14:21 43.93260 -93.91878 37100 ft 508 kts 122°
2026-05-01 14:21 43.89499 -93.83559 37101 ft 510 kts 122°
2026-05-01 14:22 43.83875 -93.71163 37090 ft 509 kts 122°
2026-05-01 14:22 43.80100 -93.62871 37105 ft 511 kts 122°
2026-05-01 14:23 43.76328 -93.54609 37102 ft 508 kts 122°
2026-05-01 14:23 43.72571 -93.46404 37128 ft 509 kts 122°
2026-05-01 14:24 43.68784 -93.38156 37118 ft 511 kts 122°
2026-05-01 14:24 43.64991 -93.29920 37105 ft 509 kts 123°
2026-05-01 14:25 43.61202 -93.21716 37120 ft 511 kts 123°
2026-05-01 14:25 43.57400 -93.13504 37095 ft 511 kts 123°
2026-05-01 14:26 43.51672 -93.01180 37107 ft 511 kts 123°
2026-05-01 14:27 43.47821 -92.92922 37085 ft 512 kts 123°
2026-05-01 14:27 43.43989 -92.84727 37106 ft 512 kts 123°
2026-05-01 14:28 43.38202 -92.72395 37092 ft 512 kts 123°
2026-05-01 14:28 43.34349 -92.64214 37070 ft 514 kts 124°
2026-05-01 14:29 43.30466 -92.55992 37081 ft 513 kts 124°
2026-05-01 14:30 43.22728 -92.39674 37085 ft 515 kts 124°
2026-05-01 14:31 43.16841 -92.27320 37084 ft 514 kts 125°
2026-05-01 14:31 43.12942 -92.19167 37069 ft 516 kts 125°
2026-05-01 14:32 43.09034 -92.11016 37074 ft 515 kts 125°
2026-05-01 14:32 43.05115 -92.02865 37070 ft 515 kts 125°
2026-05-01 14:33 43.01169 -91.94682 37085 ft 517 kts 125°
2026-05-01 14:33 42.97220 -91.86515 37086 ft 516 kts 125°
2026-05-01 14:34 42.93260 -91.78347 37070 ft 520 kts 125°
2026-05-01 14:34 42.89304 -91.70210 37070 ft 518 kts 125°
2026-05-01 14:35 42.85347 -91.62093 37078 ft 515 kts 125°
2026-05-01 14:35 42.81369 -91.53954 37077 ft 519 kts 126°
2026-05-01 14:36 42.77372 -91.45801 37100 ft 521 kts 126°
2026-05-01 14:36 42.73371 -91.37662 37099 ft 522 kts 126°
2026-05-01 14:37 42.69329 -91.29459 37095 ft 521 kts 126°
2026-05-01 14:37 42.65311 -91.21330 37088 ft 521 kts 126°
2026-05-01 14:38 42.61296 -91.13228 37089 ft 522 kts 126°
2026-05-01 14:38 42.57248 -91.05082 37104 ft 523 kts 126°
2026-05-01 14:39 42.53169 -90.96894 37105 ft 524 kts 127°
2026-05-01 14:39 42.49115 -90.88780 37094 ft 524 kts 126°
2026-05-01 14:40 42.45032 -90.80630 37119 ft 523 kts 127°
2026-05-01 14:40 42.40969 -90.72538 37114 ft 523 kts 126°
2026-05-01 14:41 42.37585 -90.63772 37117 ft 532 kts 116°
2026-05-01 14:41 42.34524 -90.54737 37120 ft 529 kts 116°
2026-05-01 14:42 42.31451 -90.45744 37122 ft 530 kts 116°
2026-05-01 14:42 42.28348 -90.36736 37119 ft 530 kts 116°
2026-05-01 14:43 42.25238 -90.27758 37101 ft 531 kts 117°
2026-05-01 14:43 42.22110 -90.18765 37114 ft 534 kts 117°
2026-05-01 14:44 42.18952 -90.09724 37105 ft 531 kts 117°
2026-05-01 14:44 42.14225 -89.96254 37119 ft 534 kts 117°
2026-05-01 14:45 42.09638 -89.83244 37126 ft 534 kts 117°
2026-05-01 14:46 42.06462 -89.74274 37095 ft 535 kts 117°
2026-05-01 14:46 42.01697 -89.60870 37095 ft 534 kts 117°
2026-05-01 14:47 41.98500 -89.51913 37099 ft 533 kts 117°
2026-05-01 14:48 41.93650 -89.38381 37093 ft 536 kts 117°
2026-05-01 14:48 41.88834 -89.25002 37114 ft 535 kts 118°
2026-05-01 14:49 41.82328 -89.07034 37096 ft 537 kts 118°
2026-05-01 14:50 41.75806 -88.89133 37093 ft 537 kts 118°
2026-05-01 14:51 41.70884 -88.75697 37097 ft 539 kts 118°
2026-05-01 14:52 41.65950 -88.62293 37102 ft 540 kts 118°
2026-05-01 14:53 41.60991 -88.48885 37111 ft 541 kts 118°
2026-05-01 14:53 41.57655 -88.39899 37099 ft 539 kts 118°
2026-05-01 14:54 41.54321 -88.30950 37105 ft 541 kts 120°
2026-05-01 14:54 41.50809 -88.22146 37101 ft 541 kts 121°
2026-05-01 14:55 41.47261 -88.13377 37105 ft 541 kts 121°
2026-05-01 14:55 41.43713 -88.04617 37111 ft 539 kts 121°
2026-05-01 14:56 41.40135 -87.95799 37109 ft 543 kts 122°
2026-05-01 14:56 41.36569 -87.87026 37111 ft 540 kts 122°
2026-05-01 14:57 41.32976 -87.78211 37078 ft 543 kts 121°
2026-05-01 14:57 41.27622 -87.65113 37103 ft 542 kts 121°
2026-05-01 14:58 41.24021 -87.56354 37087 ft 544 kts 122°
2026-05-01 14:58 41.20330 -87.47672 37087 ft 540 kts 128°
2026-05-01 14:59 41.15404 -87.40331 37094 ft 528 kts 146°
2026-05-01 14:59 41.09345 -87.35184 37075 ft 508 kts 163°
2026-05-01 15:00 40.99648 -87.29886 37098 ft 509 kts 166°
2026-05-01 15:01 40.93121 -87.26427 37095 ft 505 kts 166°
2026-05-01 15:01 40.86585 -87.22992 37098 ft 506 kts 167°
2026-05-01 15:02 40.80067 -87.19586 37078 ft 507 kts 167°
2026-05-01 15:02 40.73497 -87.16172 37045 ft 505 kts 167°
2026-05-01 15:02 40.70248 -87.14486 36532 ft 504 kts 167°
2026-05-01 15:03 40.67014 -87.12816 35809 ft 508 kts 168°
2026-05-01 15:03 40.63701 -87.11105 35150 ft 511 kts 168°
2026-05-01 15:03 40.60411 -87.09409 34458 ft 514 kts 170°
2026-05-01 15:03 40.57085 -87.07698 33562 ft 518 kts 169°
2026-05-01 15:04 40.53723 -87.05924 32928 ft 525 kts 167°
2026-05-01 15:04 40.50412 -87.03856 32116 ft 533 kts 164°
2026-05-01 15:04 40.47098 -87.01722 31209 ft 537 kts 164°
2026-05-01 15:04 40.43751 -86.99571 30526 ft 534 kts 163°
2026-05-01 15:05 40.40421 -86.97438 30034 ft 528 kts 163°
2026-05-01 15:05 40.37150 -86.95351 29494 ft 521 kts 163°
2026-05-01 15:05 40.33921 -86.93301 29045 ft 515 kts 163°
2026-05-01 15:05 40.30696 -86.91262 28512 ft 511 kts 162°
2026-05-01 15:06 40.27522 -86.89262 27947 ft 507 kts 163°
2026-05-01 15:06 40.24389 -86.87291 27374 ft 503 kts 163°
2026-05-01 15:06 40.21249 -86.85319 26868 ft 498 kts 162°
2026-05-01 15:06 40.18128 -86.83363 26311 ft 493 kts 162°
2026-05-01 15:07 40.15075 -86.81453 25780 ft 489 kts 162°
2026-05-01 15:07 40.12026 -86.79549 25253 ft 485 kts 161°
2026-05-01 15:07 40.08981 -86.77651 24663 ft 481 kts 161°
2026-05-01 15:07 40.06005 -86.75796 24134 ft 477 kts 161°
2026-05-01 15:08 40.03090 -86.73711 23543 ft 480 kts 152°
2026-05-01 15:08 40.00463 -86.71066 22929 ft 482 kts 142°
2026-05-01 15:08 39.98187 -86.67878 22585 ft 478 kts 131°
2026-05-01 15:08 39.96258 -86.64416 22347 ft 471 kts 127°
2026-05-01 15:09 39.94402 -86.60941 22012 ft 467 kts 127°
2026-05-01 15:09 39.92548 -86.57458 21615 ft 463 kts 127°
2026-05-01 15:09 39.90741 -86.54063 21299 ft 460 kts 127°
2026-05-01 15:09 39.88913 -86.50629 20959 ft 457 kts 127°
2026-05-01 15:10 39.87099 -86.47223 20638 ft 456 kts 127°
2026-05-01 15:10 39.83501 -86.40473 19998 ft 454 kts 127°
2026-05-01 15:10 39.81745 -86.37078 19704 ft 453 kts 122°
2026-05-01 15:11 39.80336 -86.33462 19379 ft 447 kts 116°
2026-05-01 15:11 39.77815 -86.26157 18719 ft 449 kts 115°
2026-05-01 15:11 39.76550 -86.22488 18394 ft 444 kts 115°
2026-05-01 15:12 39.75290 -86.18838 18103 ft 440 kts 115°
2026-05-01 15:12 39.72805 -86.11655 17465 ft 435 kts 115°
2026-05-01 15:12 39.71568 -86.08089 17157 ft 430 kts 115°
2026-05-01 15:13 39.67919 -85.97598 16243 ft 424 kts 115°
2026-05-01 15:14 39.65499 -85.90663 15635 ft 419 kts 115°
2026-05-01 15:14 39.64293 -85.87211 15325 ft 420 kts 115°
2026-05-01 15:14 39.61905 -85.80392 14733 ft 414 kts 115°
2026-05-01 15:15 39.59667 -85.73624 14146 ft 408 kts 112°
2026-05-01 15:15 39.57563 -85.66834 13572 ft 403 kts 112°
2026-05-01 15:16 39.55452 -85.60074 12998 ft 403 kts 112°
2026-05-01 15:16 39.53381 -85.53477 12452 ft 397 kts 112°
2026-05-01 15:17 39.51001 -85.47101 11869 ft 388 kts 126°
2026-05-01 15:18 39.46373 -85.38630 11006 ft 380 kts 128°
2026-05-01 15:18 39.44852 -85.35868 10727 ft 370 kts 128°
2026-05-01 15:19 39.40604 -85.28033 9987 ft 345 kts 120°
2026-05-01 15:19 39.39057 -85.22293 9509 ft 332 kts 109°
2026-05-01 15:19 39.38423 -85.19468 9276 ft 325 kts 108°
2026-05-01 15:20 39.37192 -85.13966 8822 ft 313 kts 108°
2026-05-01 15:20 39.36592 -85.11290 8602 ft 306 kts 108°
2026-05-01 15:20 39.36007 -85.08683 8385 ft 301 kts 108°
2026-05-01 15:21 39.35429 -85.06113 8174 ft 297 kts 108°
2026-05-01 15:21 39.34860 -85.03584 7968 ft 296 kts 108°
2026-05-01 15:21 39.34283 -85.01027 7770 ft 295 kts 108°
2026-05-01 15:21 39.33712 -84.98495 7577 ft 293 kts 107°
2026-05-01 15:22 39.32582 -84.93492 7117 ft 291 kts 108°
2026-05-01 15:22 39.31880 -84.91023 6898 ft 287 kts 117°
2026-05-01 15:22 39.31015 -84.88718 6645 ft 287 kts 118°
2026-05-01 15:23 39.30134 -84.86446 6397 ft 284 kts 118°
2026-05-01 15:23 39.29262 -84.84187 6144 ft 281 kts 118°
2026-05-01 15:23 39.28394 -84.81934 5876 ft 279 kts 118°
2026-05-01 15:23 39.27535 -84.79700 5626 ft 276 kts 118°
2026-05-01 15:24 39.26692 -84.77510 5388 ft 273 kts 117°
2026-05-01 15:24 39.25853 -84.75331 5138 ft 270 kts 117°
2026-05-01 15:24 39.25020 -84.73167 4908 ft 267 kts 117°
2026-05-01 15:24 39.24211 -84.71059 4679 ft 264 kts 117°
2026-05-01 15:25 39.23395 -84.68935 4434 ft 261 kts 117°
2026-05-01 15:25 39.22557 -84.66862 4201 ft 258 kts 127°
2026-05-01 15:25 39.21273 -84.65351 3941 ft 247 kts 154°
2026-05-01 15:25 39.19692 -84.64651 3618 ft 236 kts 179°
2026-05-01 15:26 39.18075 -84.64577 3320 ft 232 kts 185°
2026-05-01 15:26 39.16481 -84.64600 3026 ft 228 kts 185°
2026-05-01 15:26 39.14914 -84.64623 2731 ft 222 kts 184°
2026-05-01 15:26 39.13430 -84.64632 2471 ft 205 kts 184°
2026-05-01 15:27 39.12037 -84.64639 2215 ft 194 kts 185°
2026-05-01 15:27 39.10719 -84.64645 1960 ft 181 kts 184°
2026-05-01 15:27 39.09509 -84.64651 1728 ft 168 kts 185°
2026-05-01 15:28 39.07000 -84.64669 2444 ft 203 kts 184°
2026-05-01 15:28 39.05507 -84.64681 2946 ft 225 kts 182°
2026-05-01 15:28 39.03964 -84.64226 2979 ft 236 kts 153°
2026-05-01 15:29 39.02287 -84.60670 2973 ft 244 kts 89°
2026-05-01 15:29 39.02694 -84.58565 2976 ft 242 kts 56°
2026-05-01 15:29 39.05266 -84.56047 2991 ft 232 kts 24°
2026-05-01 15:30 39.08270 -84.54601 2994 ft 230 kts 14°
2026-05-01 15:31 39.14348 -84.52033 3000 ft 230 kts 10°
2026-05-01 15:31 39.17375 -84.51482 2989 ft 206 kts 355°
2026-05-01 15:32 39.20173 -84.51556 2994 ft 201 kts 353°
2026-05-01 15:32 39.22708 -84.52557 2988 ft 189 kts 307°
2026-05-01 15:33 39.22929 -84.57368 2993 ft 188 kts 260°
2026-05-01 15:34 39.22097 -84.62351 2994 ft 189 kts 258°